This is the latest recevied weather packets stored in our database for station/object K7TSD. If no packets are shown the sender has not sent any weather packets the latest 10 day(s).
| Time | Temp. | Humidity | Pressure | Rain* | Wind** | Luminosity | Snow |
|---|---|---|---|---|---|---|---|
| 1777645465 | 10.56° C | 46% | 1017.3 hPa | 0 mm | - | 218 W/m² | - |
| 1777645160 | 10.56° C | 44% | 1017.3 hPa | 0 mm | - | 204 W/m² | - |
| 1777644857 | 10.56° C | 45% | 1017.3 hPa | 0 mm | - | 184 W/m² | - |
| 1777644556 | 10.56° C | 45% | 1017.3 hPa | 0 mm | - | 178 W/m² | - |
| 1777644250 | 10° C | 47% | 1017.3 hPa | 0 mm | - | 164 W/m² | - |
| 1777643947 | 10° C | 46% | 1017.3 hPa | 0 mm | - | 154 W/m² | - |
| 1777643645 | 10° C | 46% | 1017.6 hPa | 0 mm | - | 141 W/m² | - |
| 1777643341 | 10° C | 47% | 1017.5 hPa | 0 mm | - | 131 W/m² | - |
| 1777643038 | 9.44° C | 49% | 1017.3 hPa | 0 mm | - | 112 W/m² | - |
| 1777642735 | 9.44° C | 48% | 1017.2 hPa | 0 mm | - | 100 W/m² | - |
| 1777642432 | 8.89° C | 51% | 1017.5 hPa | 0 mm | - | 84 W/m² | - |
| 1777642128 | 8.33° C | 50% | 1017.3 hPa | 0 mm | - | 41 W/m² | - |
| 1777641824 | 8.33° C | 50% | 1017.1 hPa | 0 mm | - | 38 W/m² | - |
| 1777641520 | 7.78° C | 51% | 1017.3 hPa | 0 mm | - | 37 W/m² | - |
| 1777641214 | 7.78° C | 51% | 1017.2 hPa | 0 mm | - | 35 W/m² | - |
| 1777640912 | 7.22° C | 52% | 1017.2 hPa | 0 mm | - | 32 W/m² | - |
| 1777640609 | 6.67° C | 53% | 1017.1 hPa | 0 mm | - | 32 W/m² | - |
| 1777640305 | 6.67° C | 52% | 1017.1 hPa | 0 mm | - | 29 W/m² | - |
| 1777640001 | 6.11° C | 54% | 1017.2 hPa | 0 mm | - | 27 W/m² | - |
| 1777639698 | 5.56° C | 54% | 1017.2 hPa | 0 mm | - | 26 W/m² | - |
| 1777639397 | 5.56° C | 55% | 1016.9 hPa | 0 mm | - | 23 W/m² | - |
| 1777639096 | 5.56° C | 55% | 1016.8 hPa | 0 mm | - | 20 W/m² | - |
| 1777638794 | 5° C | 56% | 1016.7 hPa | 0 mm | - | 17 W/m² | - |
| 1777638489 | 5° C | 55% | 1017.2 hPa | 0 mm | - | 16 W/m² | - |
| 1777638186 | 4.44° C | 57% | 1016.9 hPa | 0 mm | - | 13 W/m² | - |
* Rain latest hour (hover to see other rain measurements)
** Current wind speed in m/s (hover to see current wind gust speed)